Regional Weather Roundup
Issued by NWS Cleveland, OH

Home | Current Version | Previous Version | Graphics & Text | Print | Product List | Glossary On
Versions: 1 2 3 4 5 6 7 8 9 10 11 12 13 14 15 16 17 18 19 20 21 22 23 24 25 26 27 28 29 30 31 32 33 34 35 36 37 38 39 40 41 42 43 44 45 46 47 48 49 50
000
ASUS41 KCLE 230200
RWRCLE
OHIO REGIONAL WEATHER ROUNDUP
NATIONAL WEATHER SERVICE WILMINGTON, OH
1000 PM EDT TUE APR 22 2014

NOTE: "FAIR" INDICATES FEW OR NO CLOUDS BELOW 12,000 FEET WITH NO
SIGNIFICANT WEATHER AND/OR OBSTRUCTIONS TO VISIBILITY.

OHZ001>008-015>018-024>027-034-035-043-044-230300-
   NORTHWEST OHIO

CITY           SKY/WX    TMP DP  RH WIND       PRES   REMARKS
DEFIANCE       CLEAR     45  29  53 N13       29.96R
FINDLAY        PTCLDY    46  31  55 NW15G24   29.92R
TOLEDO EXPRESS CLOUDY    46  29  51 NW13G23   29.93R
TOLEDO METCALF MOCLDY    45  30  55 NW13G23   29.94R
LIMA           CLEAR     46  32  58 NW15      29.93R
$$

OHZ009>014-019>023-028>033-038-089-230300-
   NORTHEAST OHIO

CITY           SKY/WX    TMP DP  RH WIND       PRES   REMARKS
CLE-HOPKINS    LGT RAIN  47  36  65 N15       29.90R
CLE-LAKEFRONT  CLOUDY    44  37  76 NW21G29   29.86R
CUY CO. ARPT   LGT RAIN  43  36  75 N17       29.87R
LORAIN-ELYRIA  CLOUDY    48  34  58 N20G28    29.89R
ASHTABULA      RAIN      40  34  79 NW16G26   29.85R
AKRON-CANTON   CLOUDY    49  33  55 NW12      29.84R
WOOSTER        NOT AVBL
MANSFIELD      CLOUDY    47  34  60 NW16G32   29.87R
YOUNGSTOWN     CLOUDY    45  35  68 NW17      29.81R
$$

OHZ042-051>053-060>062-070>072-077>081-230300-
  SOUTHWEST OHIO

CITY           SKY/WX    TMP DP  RH WIND       PRES   REMARKS
CINC-COVINGTON CLEAR     52  31  44 NW17G29   29.95R
CINC-LUNKEN    PTCLDY    52  31  44 N16G25    29.97R
HAMILTON       CLEAR     51  32  48 NW12G22   29.98R
DAYTON         NOT AVBL
WRIGHT-PAT AFB NOT AVBL
DAYTON GENERAL FAIR      49  31  49 NW18      29.94R
WILMINGTON     PTCLDY    49  31  49 NW17G24   29.92R
$$

OHZ036-037-039>041-045>050-054>059-063>069-073>076-082>088-230300-
  CENTRAL AND SOUTHEAST OHIO

CITY           SKY/WX    TMP DP  RH WIND       PRES   REMARKS
COLUMBUS       MOCLDY    53  33  46 NW16G24   29.88R
OSU AIRPORT    PTCLDY    50  33  52 NW16      29.88R
BOLTON FIELD   NOT AVBL
RICKENBACK AFB NOT AVBL
NEWARK         CLOUDY    52  33  48 NW14      29.86R
MARION         CLOUDY    50  33  52 NW20G28   29.89R
LANCASTER      PTCLDY    51  33  50 NW16G22   29.88R
ZANESVILLE     PTCLDY    53  32  44 NW12G24   29.84R
NEW PHILLY     CLOUDY    50  32  50 NW9G20    29.85R
$$



USA.gov is the U.S. government's official web portal to all federal, state and local government web resources and services.